This demonstration page uses our WeatherBlox Daily Observations layout. Learn more.

Left ArrowRight Arrow

Hourly Observations for May 17, 2019

Temp ( °F °C ) Dew Point ( °F °C ) Humidity (%) Winds ( mph kmh ) Pressure ( in mb ) Visibility ( mi km ) Precip ( " mm )
12:15 am 00:15 Clear 74 23.2 61 16.2 65 65 NNW 3 6 29.57 1001 10 16 N/A
12:35 am 00:35 Clear 69 20.4 62 16.7 79 79 NE 12 19 29.60 1003 10 16 N/A
12:55 am 00:55 Clear 67 19.4 61 16.1 81 81 NE 7 11 29.61 1003 10 16 N/A
1:15 am 01:15 Clear 67 19.2 60 15.6 80 80 NE 9 15 29.61 1003 10 16 N/A
1:35 am 01:35 Clear 66 18.7 59 15.2 80 80 NE 12 19 29.62 1003 10 16 N/A
1:55 am 01:55 Clear 65 18.5 59 15.1 81 81 NE 12 19 29.63 1003 10 16 N/A
2:15 am 02:15 Clear 65 18.3 57 14.1 77 77 NE 14 22 29.62 1003 10 16 N/A
2:35 am 02:35 Clear 65 18.1 56 13.3 74 74 NE 21 33 29.61 1003 10 16 N/A
2:55 am 02:55 Clear 63 17 55 13 77 77 NE 9 15 29.62 1003 10 16 N/A
3:15 am 03:15 Clear 61 16.2 56 13.2 83 83 ENE 10 17 29.62 1003 10 16 N/A
3:35 am 03:35 Clear 61 16 56 13.2 84 84 ENE 9 15 29.62 1003 10 16 N/A
3:55 am 03:55 Clear 60 15.8 55 13 84 84 ENE 12 19 29.61 1003 10 16 N/A
4:15 am 04:15 Clear 60 15.8 55 12.7 82 82 E 8 13 29.61 1003 10 16 N/A
4:35 am 04:35 Clear 60 15.6 55 13 85 85 SE 3 6 29.61 1003 10 16 N/A
4:55 am 04:55 Clear 60 15.5 55 13 85 85 E 7 11 29.62 1003 10 16 N/A
5:15 am 05:15 Clear 59 15.1 55 13 87 87 E 6 9 29.62 1003 10 16 N/A
5:35 am 05:35 Clear 58 14.6 55 13 90 90 E 6 9 29.61 1003 10 16 N/A
5:55 am 05:55 Clear 59 14.9 56 13.2 90 90 E 9 15 29.60 1002 10 16 N/A
6:15 am 06:15 Clear 58 14.7 55 13 90 90 E 8 13 29.60 1002 10 16 N/A
6:35 am 06:35 Sunny 58 14.5 55 13 91 91 ENE 6 9 29.60 1003 10 16 N/A
6:55 am 06:55 Sunny 58 14.2 56 13.2 94 94 ENE 6 9 29.61 1003 10 16 N/A
7:15 am 07:15 Sunny 59 15 56 13.6 91 91 E 6 9 29.60 1002 10 16 N/A
7:35 am 07:35 Sunny 60 15.7 58 14.4 92 92 E 6 9 29.58 1002 10 16 N/A
7:55 am 07:55 Sunny 62 16.6 59 15 90 90 E 8 13 29.57 1001 10 16 N/A
8:15 am 08:15 Sunny 64 18 60 15.8 87 87 E 6 9 29.56 1001 10 16 N/A
8:35 am 08:35 Sunny 66 19.1 62 16.5 85 85 SE 8 13 29.55 1001 10 16 N/A
8:55 am 08:55 Sunny 70 21 64 17.9 83 83 SSE 10 17 29.53 1000 10 16 N/A
9:15 am 09:15 Sunny 72 22 63 17.2 74 74 SSE 12 19 29.51 999 10 16 N/A
9:35 am 09:35 Sunny 72 22.2 63 17.1 73 73 SSE 13 20 29.51 999 10 16 N/A
9:55 am 09:55 Partly Cloudy 73 22.9 64 17.6 72 72 SSE 12 19 29.50 999 10 16 N/A
10:15 am 10:15 Sunny 72 22.3 63 17.3 73 73 S 14 22 29.50 999 10 16 N/A
10:35 am 10:35 Sunny 74 23.4 64 17.8 71 71 SSE 15 24 29.48 998 10 16 N/A
10:55 am 10:55 Sunny 75 23.8 64 17.6 68 68 SSE 14 22 29.48 998 10 16 N/A
11:15 am 11:15 Sunny 76 24.6 64 17.8 66 66 SSE 15 24 29.46 998 10 16 N/A
11:35 am 11:35 Sunny 77 25.1 64 17.6 63 63 S 17 28 29.45 997 10 16 N/A
11:55 am 11:55 Sunny 78 25.3 64 17.8 63 63 SSE 16 26 29.45 997 10 16 N/A
12:15 pm 12:15 Sunny 78 25.5 65 18.1 64 64 SSE 17 28 29.43 997 10 16 N/A
12:35 pm 12:35 Sunny 80 26.4 64 18 60 60 SSE 20 31 29.43 997 10 16 N/A
12:55 pm 12:55 Sunny 80 26.8 64 17.8 58 58 SSE 17 28 29.41 996 10 16 N/A
1:15 pm 13:15 Sunny 80 26.7 64 17.9 59 59 SSE 21 33 29.42 996 10 16 N/A
1:35 pm 13:35 Sunny 80 26.8 64 18 59 59 SSE 21 33 29.40 996 10 16 N/A
1:55 pm 13:55 Partly Cloudy 81 27 65 18.2 59 59 SSE 18 30 29.39 995 10 16 N/A
2:15 pm 14:15 Partly Cloudy 82 27.8 65 18.3 56 56 S 22 35 29.38 995 10 16 N/A
2:35 pm 14:35 Partly Cloudy 82 27.5 64 18 56 56 SSE 23 37 29.38 995 7 11 N/A
2:55 pm 14:55 Partly Cloudy 81 27.1 65 18.3 59 59 S 22 35 29.37 995 10 16 N/A
3:15 pm 15:15 Sunny 82 27.5 64 18 56 56 SSE 29 46 29.36 994 10 16 N/A
3:35 pm 15:35 Partly Cloudy 80 26.4 64 17.9 60 60 SSE 30 48 29.36 994 10 16 N/A
3:55 pm 15:55 Mostly Cloudy with Nearby Thunderstorms 79 26 64 18 61 61 SSE 29 46 29.35 994 10 16 N/A
4:15 pm 16:15 Mostly Cloudy 77 24.9 64 18 66 66 S 29 46 29.38 995 10 16 N/A
4:35 pm 16:35 Mostly Cloudy with Nearby Thunderstorms 75 23.8 65 18.6 73 73 S 26 43 29.38 995 10 16 N/A
4:55 pm 16:55 Mostly Cloudy 78 25.5 66 19 67 67 S 25 41 29.35 994 10 16 N/A
5:15 pm 17:15 Sunny 78 25.8 65 18.6 65 65 S 29 46 29.35 994 10 16 N/A
5:35 pm 17:35 Partly Cloudy 78 25.6 64 18 63 63 SSE 31 50 29.35 994 7 11 N/A
5:55 pm 17:55 Partly Cloudy 78 25.5 65 18.2 64 64 S 31 50 29.34 994 10 16 N/A
6:15 pm 18:15 Partly Cloudy 76 24.5 64 17.9 67 67 S 26 43 29.35 994 10 16 N/A
6:35 pm 18:35 Partly Cloudy 75 24 64 17.9 69 69 SSE 29 46 29.35 994 10 16 N/A
6:55 pm 18:55 Partly Cloudy 75 23.9 64 17.9 69 69 SSE 22 35 29.35 994 10 16 N/A
7:15 pm 19:15 Sunny 75 24 64 17.8 68 68 SSE 26 43 29.35 994 10 16 N/A
7:35 pm 19:35 Sunny 75 24 64 17.7 68 68 SSE 23 37 29.35 994 10 16 N/A
7:55 pm 19:55 Sunny 74 23.3 65 18.1 73 73 SSE 20 31 29.35 994 10 16 N/A
8:15 pm 20:15 Sunny 73 22.8 65 18.2 75 75 SSE 22 35 29.36 994 10 16 N/A
8:35 pm 20:35 Sunny 73 22.5 65 18.5 78 78 SSE 24 39 29.36 994 10 16 N/A
8:55 pm 20:55 Clear 72 22 66 18.7 82 82 SSE 22 35 29.36 994 10 16 N/A
9:15 pm 21:15 Partly Cloudy 72 22 66 18.8 82 82 SSE 24 39 29.36 994 10 16 N/A
9:35 pm 21:35 Cloudy 72 22.3 66 18.7 80 80 SE 24 39 29.35 994 10 16 N/A
9:55 pm 21:55 Mostly Cloudy 71 21.7 66 18.8 84 84 SE 23 37 29.34 993 10 16 N/A
10:15 pm 22:15 Partly Cloudy 71 21.5 65 18.1 81 81 SSE 26 43 29.34 993 10 16 N/A
10:35 pm 22:35 Clear 71 21.9 64 17.8 78 78 SSE 25 41 29.31 993 10 16 N/A
10:55 pm 22:55 Clear 72 22 64 18 78 78 S 26 43 29.31 993 10 16 N/A
11:15 pm 23:15 Clear 72 22.2 65 18.3 79 79 S 28 44 29.33 993 10 16 N/A
11:35 pm 23:35 Clear 72 22.3 64 18 77 77 S 24 39 29.34 994 10 16 N/A
11:55 pm 23:55 Clear 73 22.5 63 17.2 72 72 SSW 29 46 29.36 994 10 16 N/A

Powered by AerisWeather